Location: Poughquag
(41.6090°N, 73.6820°W)
Time: 05:10:54
(UTC-04:00)

Hubble Space Telescope - Visible Passes

Search period start: 24 March 2019 00:00
Search period end: 03 April 2019 00:00
Orbit: 537 x 540 km, 28.5° (Epoch: 23 March)

Date Brightness Start Highest point End Pass type
(mag) Time Alt. Az. Time Alt. Az. Time Alt. Az.
25 Mar 3.2 20:53:36 10° S 20:53:49 10° S 20:53:49 10° S visible
26 Mar 3.0 20:42:36 10° SSW 20:44:06 12° S 20:44:06 12° S visible
27 Mar 2.9 20:31:46 10° SSW 20:33:36 13° S 20:34:21 12° SSE visible
28 Mar 3.0 20:21:02 10° SSW 20:22:59 13° S 20:24:32 11° SSE visible
29 Mar 3.0 20:10:24 10° SSW 20:12:23 13° S 20:14:20 10° SSE visible
30 Mar 3.1 19:59:51 10° SSW 20:01:45 13° S 20:03:39 10° SSE visible
31 Mar 3.1 19:49:23 10° SSW 19:51:08 12° S 19:52:53 10° SSE visible
